Regional Weather Roundup
Issued by NWS Upton, NY

Current Version | Previous Version | Graphics & Text | Print | Product List | Glossary Off
Versions: 1 2 3 4 5 6 7 8 9 10 11 12 13 14 15 16 17 18 19 20 21 22 23 24 25 26 27

000
ASUS41 KOKX 282108
RWROKX

REGIONAL WEATHER ROUNDUP
NATIONAL WEATHER SERVICE NEW YORK NY
500 PM EDT TUE MAR 28 2017

NOTE: "FAIR" INDICATES FEW OR NO CLOUDS BELOW 12,000 FEET WITH NO
SIGNIFICANT WEATHER AND/OR OBSTRUCTIONS TO VISIBILITY.

NYZ071-072-176-178-NJZ106-104-282200-
NEW YORK CITY METRO AREA

CITY           SKY/WX    TMP DP  RH WIND       PRES   REMARKS
Central Park   CLOUDY    42  40  92 E8        29.91R
Wall St Helipt CLOUDY    43  41  93 NE12      29.89S
LaGuardia APRT CLOUDY    43  39  86 NE12      29.88S
Kennedy INTL   CLOUDY    47  45  93 N8        29.89R
Breezy Point     N/A     45 N/A N/A NE6         N/A
Newark/Liberty CLOUDY    45  44  97 N6        29.88R
Teterboro      CLOUDY    44  42  93 E10       29.88R FOG
$$

NYZ177-179-078>081-282200-
LONG ISLAND NEW YORK

CITY           SKY/WX    TMP DP  RH WIND       PRES   REMARKS
Jones Beach      N/A     43 N/A N/A E15         N/A
Matinecock PT    N/A     37 N/A N/A E17         N/A  WCI  28
Farmingdale    CLOUDY    46  45  96 NE7       29.87S
MacArthur/ISP  CLOUDY    44  44 100 NE9       29.87S
Shirley        LGT RAIN  43  43 100 VRB3      29.88F
Westhampton    LGT RAIN  43  40  89 E9        29.89F
East Hampton   DRIZZLE   41  39  93 E8        29.89F
Montauk        NOT AVBL
$$

NYZ052-065-067-282200-
HUDSON VALLEY

CITY           SKY/WX    TMP DP  RH WIND       PRES   REMARKS
White Plains   LGT RAIN  42  40  92 E12       29.88R FOG
Newburgh       CLOUDY    46  46 100 NE8       29.88F FOG
Montgomery     CLOUDY    47  44  90 NE3       29.86F
Poughkeepsie   LGT RAIN  45  43  93 N8        29.87F
Albany         LGT RAIN  47  44  90 S9        29.90F FOG
$$

NJZ001-105-106-008-010-013-015-019>022-104-282200-
NEW JERSEY

CITY           SKY/WX    TMP DP  RH WIND       PRES   REMARKS
Newark/Liberty CLOUDY    45  44  97 N6        29.88R
Teterboro      CLOUDY    44  42  93 E10       29.88R FOG
Caldwell       CLOUDY    46  44  93 E6        29.89R
Somerville     LGT RAIN  48  46  93 N5        29.86R FOG
Linden         CLOUDY    46  43  90 CALM      29.88S
Sussex         LGT RAIN  47  46  97 VRB3      29.88R
Andover          N/A     47  45  93 CALM      29.87R
Trenton        LGT RAIN  47  46  97 NE7       29.86S FOG
Millville      CLOUDY    59  59 100 NE5       29.81F
Atlantic City  CLOUDY    51  47  86 E7        29.83F
Wrightstown    CLOUDY    51  50  97 NE7       29.83R
Toms River     CLOUDY    48  47  96 NE6       29.87R
Belmar         FOG       43  42  97 NE9       29.86F VSB 1/2
$$

PAZ047>061-062-071-282200-
EASTERN PENNSYLVANIA

CITY           SKY/WX    TMP DP  RH WIND       PRES   REMARKS
Philadelphia   CLOUDY    53  50  89 N7        29.85R
Allentown      LGT RAIN  51  47  86 E5        29.86S FOG
Scranton       CLOUDY    51  48  89 VRB7      29.85R
$$

CTZ002-004>006-009-010-012-RIZ004-006-007-MAZ004-011-015-282200-
SOUTHERN NEW ENGLAND
 IN CT

CITY           SKY/WX    TMP DP  RH WIND       PRES   REMARKS
Bradley INTL   LGT RAIN  43  42  97 N6        29.93F FOG
Hartford       CLOUDY    45  43  93 N8        29.91F FOG
Danbury        LGT RAIN  44  43  96 E9        29.88F
Wtrbury/Oxford FOG       41  37  87 E7        29.87F VSB 1
Bridgeport     CLOUDY    41  39  93 E13       29.90F
Meriden        LGT RAIN  46  43  89 N6        29.90F
New Haven      LGT RAIN  43  42  97 E6        29.90F
Chester        NOT AVBL
Groton         LGT RAIN  45  42  89 E7        29.91F
Wilimantic     LGT RAIN  46  43  89 E6        29.93F FOG

 IN RI

CITY           SKY/WX    TMP DP  RH WIND       PRES   REMARKS
Providence     LGT RAIN  44  41  89 NE7       29.94F
Block Island   LGT RAIN  39  39 100 NE13      29.92F WCI  31
Westerly       LGT RAIN  44  42  93 NE9       29.93F
 IN MA

CITY           SKY/WX    TMP DP  RH WIND       PRES   REMARKS
Boston         LGT RAIN  39  38  96 E9        29.98F FOG     WCI  33
Worcester      LGT RAIN  37  35  92 NE7       29.92S VSB 1/4 WCI  32
Westfield      LGT RAIN  42  42 100 NE3       29.93F FOG
Provincetown   LGT RAIN  40  39  97 NE6       29.99F
Nantucket      LGT RAIN  42  38  85 NE10      29.95F
$$

ANZ330-335-338-340-345-350-353-355-282200-
COASTAL MARINE OBSERVATIONS


STATION/POSITION TIME  SKY/WX   TEMP    WIND        PRES    VSBY  WAVE
                                AIR SEA DIR/SP/G                  HT/PER
                 (UTC)          (F)     (DEG/KT/KT) (MB)    (MI)  (FT/S)
NY HARB ENTRANCE NOT AVBL
20 S FIRE ISLAND NOT AVBL
GREAT SOUTH BAY  NOT AVBL
23 SSW MONTAUK P NOT AVBL
15 E BARNEGAT LI NOT AVBL
HUDSON CANYON    NOT AVBL
KINGS POINT      2048            41 40              1011.9
EXECUTION ROCKS  NOT AVBL
CENTRAL LI SOUND 2030            40      80/ 12/ 16   N/A           2/ 4
EASTERN LI SOUND NOT AVBL
ROBBINS REEF     2048            42      50/ 12/ 13 1011.7
$$


>>>>>>>>>>>>>>>>>>>>>>>>>>>> KEY <<<<<<<<<<<<<<<<<<<<<<<<<<<
>                                                          <
>     SKY/WX - Sky Condition/Present Weather               <
>     TMP    - Temperature in Fahrenheit                   <
>     DP     - Dew Point in Fahrenheit                     <
>     RH     - Relative Humidity in Percent                <
>     WIND   - Direction (from) and Speed in MPH           <
>     PRES   - Mean Sea Level Pressure (inches of Hg)      <
>     WCI    - Wind Chill Index                            <
>     VSB    - VISIBILITY IN MILES                         <
>     HX     - HEAT INDEX                                  <
>     TC     - TEMPERATURE IN CELSIUS                      <
>     VRB    - VARIABLE WIND DIRECTION                     <
>                                                          <
>>>>>>>>>>>>>>>>>>>>>>>>>>>> KEY <<<<<<<<<<<<<<<<<<<<<<<<<<<




USA.gov is the U.S. government's official web portal to all federal, state and local government web resources and services.